Location: Bannatyne
(13.0833°N, 59.5333°W)
Time: 00:13:49
(UTC+00:00)

Transit 4A - Pass Details

Date: 25 January 2021
Orbit: 866 x 978 km, 66.8° (Epoch: 03 March)

Event Time Altitude Azimuth Distance (km) Brightness Sun altitude
Exits shadow 09:49:40 - 306° (NW) 2,639 9.7 -9.0°
Reaches altitude 10° 09:49:56 10° 305° (NW) 2,564 9.6 -9.0°
Maximum altitude 09:54:32 24° 253° (WSW) 1,755 8.9 -7.9°
Drops below altitude 10° 09:59:04 10° 201° (SSW) 2,517 10.1 -6.8°
Sets 10:02:00 0° 188° (S) 3,445 11.0 -6.2°
